(187798) = 1999 FW15

Discovered at Kitt Peak on 1999-03-20 by Spacewatch.

Orbit

Orbit type: Main Belt

Note: WebGL enabled browser required.

epoch2024-03-31.0
epoch JD2460400.5
perihelion date2025-06-13.93286
perihelion JD2460840.43286
argument of perihelion (°)35.04168
ascending node (°)151.72345
inclination (°)9.19395
eccentricity0.2237228
perihelion distance (AU)2.0867453
Tisserand w.r.t. Jupiter3.3
ΔV w.r.t. Earth (km/sec)9.5
semimajor axis (AU)2.6881444
mean anomaly (°)261.61897
mean daily motion (°/day)0.22362740
aphelion distance (AU)3.290
period (years)4.41
P-vector [x]-0.98954303
P-vector [y]-0.13861083
P-vector [z]0.03989532
Q-vector [x]0.12278235
Q-vector [y]-0.95463050
Q-vector [z]-0.27130262
absolute magnitude16.18
phase slope0.15
uncertainty0
referenceMPEC 2024-C163
observations used585
oppositions15
arc length (days)9041
first opposition used1999
last opposition used2023
residual rms (arc-secs)0.73
perturbers coarse indicatorM-v
perturbers precise indicator003Ek
first observation date used1999-03-13.0
last observation date used2023-12-13.0
computer nameMPCLINUX
JD of orbit computation2456966.822929
perihelion JD uncertainty (days)4.1029E-05
argument of perihelion uncertainty (°)2.5197E-05
ascending node uncertainty (°)2.3383E-05
inclination uncertainty (°)5.8670E-06
eccentricity uncertainty 4.9393E-08
perihelion distance uncertainty (AU)1.3339E-07
Minimum Orbit Intersection Distances (in AU)
for orbit epoch: 2460200.5, reference: E2024-CG3
Mercury1.67606
Venus1.36671
Earth1.09508
Mars0.4419
Jupiter1.682
Saturn6.07581
Uranus16.2904
Neptune26.5775

Observations

597 total observations over interval: 1999 03 13.50602 – 2023 12 13.282584
These data are available for download (format description).

Date (UT) J2000 RA J2000 Dec Magn Location Ref
1999 03 13.50602 15 14 12.58 -06 22 06.9 20.6 V 691 – Steward Observatory, Kitt Peak-Spacewatch MPS 79550
1999 03 13.51847 15 14 12.92 -06 22 02.3 20.9 V 691 – Steward Observatory, Kitt Peak-Spacewatch MPS 79550
1999 03 13.53106 15 14 13.24 -06 21 58.1 20.9 V 691 – Steward Observatory, Kitt Peak-Spacewatch MPS 79550
1999 03 20.46731 15 16 44.03 -05 37 52.4 19.3 V 691 – Steward Observatory, Kitt Peak-Spacewatch MPS 4243
1999 03 20.48886 15 16 44.35 -05 37 43.2 19.4 V 691 – Steward Observatory, Kitt Peak-Spacewatch MPS 4243
1999 03 20.50936 15 16 44.59 -05 37 34.6 19.4 V 691 – Steward Observatory, Kitt Peak-Spacewatch MPS 4243
1999 03 22.45876 15 17 09.95 -05 24 02.9 19.7 V 691 – Steward Observatory, Kitt Peak-Spacewatch MPS 4243
1999 03 22.47975 15 17 10.11 -05 23 54.0 19.6 V 691 – Steward Observatory, Kitt Peak-Spacewatch MPS 4243
1999 03 22.50124 15 17 10.30 -05 23 44.9 19.8 V 691 – Steward Observatory, Kitt Peak-Spacewatch MPS 4243
1999 05 08.26969 14 56 15.16 +00 09 43.1 18.9 R 703 – Catalina Sky Survey MPS 30744
1999 05 08.28342 14 56 14.46 +00 09 46.6 18.8 R 703 – Catalina Sky Survey MPS 30744
1999 05 08.29674 14 56 13.80 +00 09 50.6 18.4 R 703 – Catalina Sky Survey MPS 30744
1999 05 08.31022 14 56 13.12 +00 09 54.8 18.5 R 703 – Catalina Sky Survey MPS 30744
1999 05 17.26319 14 49 31.25 +00 37 27.4 18.6   704 – Lincoln Laboratory ETS, New Mexico MPS 30744
1999 05 17.27546 14 49 30.85 +00 37 30.9 18.6   704 – Lincoln Laboratory ETS, New Mexico MPS 30744
1999 05 17.28766 14 49 30.34 +00 37 31.0 18.8   704 – Lincoln Laboratory ETS, New Mexico MPS 30744
1999 05 17.29981 14 49 29.64 +00 37 34.1 19.1   704 – Lincoln Laboratory ETS, New Mexico MPS 30744
1999 05 17.31200 14 49 29.13 +00 37 35.7 19.1   704 – Lincoln Laboratory ETS, New Mexico MPS 30744
2003 01 07.43100 09 59 49.94 +06 56 58.6 18.9 R 926 – Tenagra II Observatory, Nogales MPS 73074
2003 01 07.43498 09 59 49.91 +06 56 59.4 19.4 R 926 – Tenagra II Observatory, Nogales MPS 73074
2003 01 07.43889 09 59 49.90 +06 57 00.2   926 – Tenagra II Observatory, Nogales MPS 73075
2003 01 07.44279 09 59 49.87 +06 57 01.0 19.5 R 926 – Tenagra II Observatory, Nogales MPS 73075
2003 01 07.44671 09 59 49.87 +06 57 01.5   926 – Tenagra II Observatory, Nogales MPS 73075
2003 01 07.45064 09 59 49.80 +06 57 02.0   926 – Tenagra II Observatory, Nogales MPS 73075
2003 01 15.41963 09 58 30.32 +07 28 43.4 18.7 R 926 – Tenagra II Observatory, Nogales MPS 73701
2003 01 15.42862 09 58 30.14 +07 28 45.9 18.7 R 926 – Tenagra II Observatory, Nogales MPS 73701
2003 01 15.43553 09 58 30.01 +07 28 48.4 18.9 R 926 – Tenagra II Observatory, Nogales MPS 73701
2003 01 16.53162 09 58 10.52 +07 34 22.7 19.5   644 – Palomar Mountain/NEAT MPS 73075
2003 01 16.54229 09 58 10.28 +07 34 25.2 20.1   644 – Palomar Mountain/NEAT MPS 73075
2003 01 16.55312 09 58 10.11 +07 34 29.0 19.3   644 – Palomar Mountain/NEAT MPS 73075
2003 01 30.39121 09 51 26.82 +09 08 52.1 18.4 R 699 – Lowell Observatory-LONEOS MPS 71142
2003 01 30.40363 09 51 26.28 +09 08 58.4   699 – Lowell Observatory-LONEOS MPS 71142
2003 01 30.41603 09 51 25.80 +09 09 04.7   699 – Lowell Observatory-LONEOS MPS 71142
2003 01 30.42844 09 51 25.34 +09 09 11.0   699 – Lowell Observatory-LONEOS MPS 71142
2003 01 31.33314 09 50 50.00 +09 16 44.3 19.0   704 – Lincoln Laboratory ETS, New Mexico MPS 71142
2003 01 31.34711 09 50 49.43 +09 16 51.7 18.9   704 – Lincoln Laboratory ETS, New Mexico MPS 71142
2003 01 31.36110 09 50 48.86 +09 16 58.4 19.2   704 – Lincoln Laboratory ETS, New Mexico MPS 71142
2003 01 31.37510 09 50 48.24 +09 17 06.2 19.1   704 – Lincoln Laboratory ETS, New Mexico MPS 71142
2003 01 31.38911 09 50 47.70 +09 17 13.2 19.0   704 – Lincoln Laboratory ETS, New Mexico MPS 71142
2003 02 03.28048 09 48 48.62 +09 42 26.8 18.5 R 699 – Lowell Observatory-LONEOS MPS 73075
2003 02 03.29676 09 48 47.87 +09 42 36.9 18.6   704 – Lincoln Laboratory ETS, New Mexico MPS 71142
2003 02 03.30181 09 48 47.62 +09 42 38.5   699 – Lowell Observatory-LONEOS MPS 73075
2003 02 03.31211 09 48 47.20 +09 42 45.6 19.1   704 – Lincoln Laboratory ETS, New Mexico MPS 71142
2003 02 03.32310 09 48 46.77 +09 42 50.5   699 – Lowell Observatory-LONEOS MPS 73075
2003 02 03.32739 09 48 46.49 +09 42 52.9 19.0   704 – Lincoln Laboratory ETS, New Mexico MPS 71142
2003 02 03.34271 09 48 45.75 +09 43 01.1 19.2   704 – Lincoln Laboratory ETS, New Mexico MPS 71142
2003 02 03.34433 09 48 45.72 +09 43 00.4   699 – Lowell Observatory-LONEOS MPS 73075
2003 02 03.35789 09 48 45.24 +09 43 10.0 19.2   704 – Lincoln Laboratory ETS, New Mexico MPS 71142
2003 02 04.21515 09 48 08.37 +09 50 53.5 18.2 R 735 – George Observatory, Needville MPS 73075
2003 02 04.30108 09 48 04.45 +09 51 41.1 18.2 R 735 – George Observatory, Needville MPS 73075
2003 02 04.32308 09 48 03.41 +09 51 52.8 18.3 R 735 – George Observatory, Needville MPS 73075
2003 02 07.22148 09 45 54.33 +10 18 50.4 18.6   644 – Palomar Mountain/NEAT MPS 73075
2003 02 07.28792 09 45 51.14 +10 19 28.5 18.4   644 – Palomar Mountain/NEAT MPS 73075
2003 02 07.35281 09 45 48.04 +10 20 05.7 18.4   644 – Palomar Mountain/NEAT MPS 73075
2003 02 08.30977 09 45 04.08 +10 29 14.7 18.2   704 – Lincoln Laboratory ETS, New Mexico MPS 73075
2003 02 08.32387 09 45 03.35 +10 29 23.1 18.9   704 – Lincoln Laboratory ETS, New Mexico MPS 73075
2003 02 08.33779 09 45 02.68 +10 29 31.5 18.5   704 – Lincoln Laboratory ETS, New Mexico MPS 73075
2003 02 08.35184 09 45 02.03 +10 29 39.8 18.3   704 – Lincoln Laboratory ETS, New Mexico MPS 73075
2003 02 08.36598 09 45 01.33 +10 29 48.0 18.5   704 – Lincoln Laboratory ETS, New Mexico MPS 73075
2003 02 21.19291 09 34 53.49 +12 37 51.2 18.3   644 – Palomar Mountain/NEAT MPS 73701
2003 02 21.21408 09 34 52.48 +12 38 04.0 18.4   644 – Palomar Mountain/NEAT MPS 73701
2003 02 21.23559 09 34 51.41 +12 38 17.2 18.1   644 – Palomar Mountain/NEAT MPS 73701
2003 02 22.17927 09 34 08.07 +12 47 44.8 18.3   644 – Palomar Mountain/NEAT MPS 73701
2003 02 22.19900 09 34 07.14 +12 47 56.5 18.3   644 – Palomar Mountain/NEAT MPS 73701
2003 02 22.21946 09 34 06.15 +12 48 09.2 18.5   644 – Palomar Mountain/NEAT MPS 73701
2003 02 22.27101 09 34 03.68 +12 48 40.4 18.3 R 699 – Lowell Observatory-LONEOS MPS 73701
2003 02 22.27854 09 34 03.31 +12 48 44.6   699 – Lowell Observatory-LONEOS MPS 73701
2003 02 22.28607 09 34 02.93 +12 48 49.0   699 – Lowell Observatory-LONEOS MPS 73701
2003 02 22.29357 09 34 02.52 +12 48 54.1   699 – Lowell Observatory-LONEOS MPS 73701
2003 02 24.49852 09 32 23.15 +13 10 49.2 19.2   608 – Haleakala-AMOS MPS 73701
2003 02 24.50940 09 32 22.66 +13 10 55.5 19.5   608 – Haleakala-AMOS MPS 73701
2003 02 24.52003 09 32 22.16 +13 11 02.1 19.3   608 – Haleakala-AMOS MPS 73701
2003 02 28.23796 09 29 44.44 +13 47 10.4 18.9   704 – Lincoln Laboratory ETS, New Mexico MPS 73701
2003 02 28.26493 09 29 43.34 +13 47 25.2 18.4   704 – Lincoln Laboratory ETS, New Mexico MPS 73701
2003 02 28.27870 09 29 42.67 +13 47 31.9 19.0   704 – Lincoln Laboratory ETS, New Mexico MPS 73701
2003 02 28.29293 09 29 42.06 +13 47 41.3 19.3   704 – Lincoln Laboratory ETS, New Mexico MPS 73701
2003 03 05.24556 09 26 35.75 +14 33 26.2 18.6   704 – Lincoln Laboratory ETS, New Mexico MPS 73701
2003 03 05.25902 09 26 35.29 +14 33 33.7 18.9   704 – Lincoln Laboratory ETS, New Mexico MPS 73701
2003 03 05.27295 09 26 34.79 +14 33 41.3 19.3   704 – Lincoln Laboratory ETS, New Mexico MPS 73701
2003 03 05.28646 09 26 34.30 +14 33 48.4 19.2   704 – Lincoln Laboratory ETS, New Mexico MPS 73701
2003 03 05.29976 09 26 33.79 +14 33 55.2 19.3   704 – Lincoln Laboratory ETS, New Mexico MPS 73701
2003 03 06.30107 09 26 00.37 +14 42 44.8 19.1   704 – Lincoln Laboratory ETS, New Mexico MPS 73701
2003 03 06.31446 09 25 59.84 +14 42 51.0 19.3   704 – Lincoln Laboratory ETS, New Mexico MPS 73701
2003 03 06.32786 09 25 59.18 +14 42 59.4 19.3   704 – Lincoln Laboratory ETS, New Mexico MPS 73701
2003 03 06.34139 09 25 58.82 +14 43 06.2 19.1   704 – Lincoln Laboratory ETS, New Mexico MPS 73701
2003 03 06.35121 09 25 58.43 +14 43 11.0 18.6   644 – Palomar Mountain/NEAT MPS 73701
2003 03 06.35487 09 25 58.35 +14 43 14.3 19.6   704 – Lincoln Laboratory ETS, New Mexico MPS 73701
